, NM

(GMT )
Holloman AFB

Weather History for KHMN - November, 2013

Change the Weather History Date:

Thursday, November 7, 2013

  Actual Average Record
Temperature  
Mean Temperature 46 °F -  
Max Temperature 65 °F 63 °F 79 °F (2012)
Min Temperature 27 °F 36 °F 26 °F (2002)
Degree Days  
Heating Degree Days 19    
Moisture  
Dew Point 11 °F    
Average Humidity 25    
Maximum Humidity 40    
Minimum Humidity 13    
Precipitation  
Precipitation 0.00 in - - ()
Sea Level Pressure  
Sea Level Pressure 30.31 in    
Wind  
Wind Speed 4 mph (SE)    
Max Wind Speed 9 mph    
Max Gust Speed -    
Visibility 9 miles    
Events      
Averages and records for this station are not official NWS values.
T = Trace of Precipitation, MM = Missing Value Source: NWS Daily Summary

Daily Weather History Graph

Daily Weather History Graph

Search for Another Location

Airport or City:

Trip Planner

Search our weather history database for the weather conditions in past years. The results will help you decide how hot, cold, wet, or windy it might be!

Date:

Astronomy

Nov. 07, 2013 Rise Set
Actual Time 6:27 AM MST 5:08 PM MST
Civil Twilight 6:01 AM MST 5:33 PM MST
Nautical Twilight 5:32 AM MST 6:03 PM MST
Astronomical Twilight 5:03 AM MST 6:32 PM MST
Moon 10:36 AM MST (11/7) 9:24 PM MST (11/7)
Length of Visible Light 11h 31m
Length of Day
10h 40m
Waxing Crescent, 23% of the Moon is Illuminated
Nov 7
Waxing Crescent
Nov 9
First Quarter
Nov 17
Full
Nov 25
Last Quarter
Dec 2
New

Hourly Weather History & Observations

Time (MST) Temp. Windchill Dew Point Humidity Pressure Visibility Wind Dir Wind Speed Gust Speed Precip Events Conditions
12:58 AM 34.5 °F 30.4 °F 8.1 °F 33% 30.31 in 10.0 mi South 4.6 mph - N/A   Clear
1:58 AM 29.1 °F 25.4 °F 6.1 °F 38% 30.33 in 10.0 mi ENE 3.5 mph - N/A   Clear
2:58 AM 30.2 °F 25.4 °F 5.7 °F 36% 30.32 in 10.0 mi East 4.6 mph - N/A   Clear
3:58 AM 31.3 °F 27.9 °F 6.1 °F 35% 30.32 in 10.0 mi East 3.5 mph - N/A   Clear
4:58 AM 28.9 °F - 6.3 °F 38% 30.36 in 10.0 mi Calm Calm - N/A   Clear
5:58 AM 27.5 °F - 5.5 °F 39% 30.40 in 10.0 mi ESE 2.3 mph - N/A   Clear
6:58 AM 27.7 °F 23.8 °F 6.1 °F 40% 30.42 in 10.0 mi ESE 3.5 mph - N/A   Clear
7:58 AM 36.3 °F - 9.1 °F 32% 30.43 in 10.0 mi SE 2.3 mph - N/A   Clear
8:58 AM 43.9 °F - 10.0 °F 25% 30.43 in 10.0 mi Calm Calm - N/A   Clear
9:58 AM 51.4 °F - 13.5 °F 22% 30.40 in 10.0 mi North 1.2 mph - N/A   Clear
10:58 AM 56.3 °F - 15.1 °F 20% 30.38 in 10.0 mi West 4.6 mph - N/A   Clear
11:58 AM 60.1 °F - 15.3 °F 17% 30.34 in 10.0 mi Variable 3.5 mph - N/A   Clear
12:58 PM 60.8 °F - 14.5 °F 16% 30.29 in 5.0 mi Variable 3.5 mph - N/A   Haze
1:13 PM 60.8 °F - 14.0 °F 16% 30.35 in 2.5 mi SSW 6.9 mph - N/A   Haze
1:16 PM 60.8 °F - 12.2 °F 15% 30.35 in 3.0 mi Variable 4.6 mph - N/A   Haze
1:58 PM 63.7 °F - 12.2 °F 13% 30.27 in 10.0 mi Calm Calm - N/A   Clear
2:58 PM 65.1 °F - 13.5 °F 13% 30.23 in 10.0 mi West 8.1 mph - N/A   Clear
3:58 PM 62.4 °F - 14.4 °F 15% 30.22 in 10.0 mi WNW 5.8 mph - N/A   Clear
4:58 PM 60.8 °F - 12.7 °F 15% 30.24 in 10.0 mi WNW 3.5 mph - N/A   Clear
5:58 PM 56.5 °F - 7.9 °F 14% 30.26 in 10.0 mi SSE 9.2 mph - N/A   Clear
6:58 PM 52.0 °F - 12.4 °F 21% 30.27 in 10.0 mi SSE 8.1 mph - N/A   Clear
7:58 PM 50.2 °F - 12.7 °F 22% 30.25 in 10.0 mi SE 3.5 mph - N/A   Clear
8:58 PM 47.1 °F - 14.9 °F 28% 30.24 in 10.0 mi SSE 5.8 mph - N/A   Clear
9:58 PM 50.0 °F - 16.5 °F 26% 30.21 in 10.0 mi South 6.9 mph - N/A   Clear
10:58 PM 39.4 °F 33.8 °F 10.6 °F 31% 30.23 in 10.0 mi North 8.1 mph - N/A   Clear
11:58 PM 38.3 °F 31.9 °F 12.0 °F 34% 30.21 in 10.0 mi North 9.2 mph - N/A   Clear